Theta_e
344 342 345 348 349 348 347 357 357 353 351 351 351 352 350 339 336 337 335 336 339 335 332 332 331 330 330 329 328 328 328 328 329 328 330 329 327 325 325 326 326 327 326
344 346 349 347 348 349 349 357 353 351 350 351 352 351 343 336 335 335 333 332 337 334 330 330 329 329 328 329 329 328 330 328 328 329 327 326 325 324 324 325 326 325 326
349 350 349 346 349 357 356 350 349 350 347 349 349 347 337 333 332 335 333 332 332 330 329 327 327 327 327 328 329 329 329 327 326 325 325 323 324 323 324 326 325 326 326
348 351 347 346 353 355 351 348 348 343 344 345 345 340 336 333 332 331 332 329 330 328 326 325 325 326 326 327 328 328 329 326 326 325 324 324 324 324 325 326 325 325 325
346 349 347 349 355 351 350 348 346 339 340 338 332 329 328 329 329 327 328 327 328 326 324 323 323 323 325 326 327 327 328 327 327 326 325 324 325 326 326 326 326 326 326
350 350 350 354 352 349 348 341 337 337 336 330 323 323 325 326 328 328 327 326 326 325 324 325 324 323 323 323 325 326 327 327 327 326 326 325 325 325 325 325 325 325 324
350 354 352 352 350 348 343 336 335 331 325 325 321 321 323 326 326 327 328 328 326 326 324 325 324 324 322 321 322 324 326 326 326 326 325 323 324 324 324 323 323 323 323
353 354 353 350 347 342 336 333 333 326 323 325 323 322 317 320 323 325 326 326 325 326 323 324 324 323 322 321 323 323 324 325 325 326 324 323 323 323 324 323 323 323 323
352 354 351 346 342 340 337 332 332 329 322 324 325 324 318 317 318 321 322 324 324 323 323 323 322 320 321 321 321 323 323 322 325 325 324 323 323 323 323 323 323 322 322
350 349 345 341 337 335 333 330 330 330 329 323 323 324 323 322 316 314 319 321 324 324 323 321 321 319 321 320 321 321 321 321 322 322 322 322 322 322 322 322 321 321 322
343 340 338 335 331 330 332 331 328 328 327 325 324 321 322 321 322 317 313 317 321 323 323 321 321 318 320 320 320 321 319 319 319 318 319 319 320 321 321 320 321 321 322
335 334 331 330 328 328 328 327 329 328 326 324 322 322 320 319 319 319 316 318 315 321 322 322 319 318 318 319 319 320 318 318 317 316 316 317 317 318 319 319 320 320 321
331 330 328 325 326 327 327 327 327 326 325 323 324 320 322 320 323 320 319 317 314 319 321 323 318 317 317 318 319 319 318 317 317 316 315 315 315 315 316 317 317 317 319
330 326 326 327 326 326 325 326 324 323 325 324 324 323 320 320 322 321 319 315 312 314 317 316 317 317 317 318 318 319 319 318 317 316 316 314 314 314 314 314 314 314 315
324 325 326 326 326 325 325 326 323 323 324 321 318 317 315 316 318 320 320 316 313 308 309 313 313 318 317 317 317 318 318 317 316 315 315 314 314 313 313 313 311 312 312
324 324 324 325 324 324 325 326 324 323 320 316 314 314 312 311 313 317 317 317 317 313 308 314 313 317 319 317 317 318 318 317 316 315 315 314 313 313 313 312 310 310 310
323 322 324 324 324 323 325 324 322 319 317 316 313 311 311 313 312 316 317 318 316 315 311 313 315 317 318 317 317 318 317 316 317 314 314 313 312 312 312 311 310 307 307
323 323 323 323 323 322 324 322 318 318 316 311 310 310 309 311 314 316 316 317 316 317 313 312 314 313 315 317 316 315 315 315 316 314 314 313 312 311 311 309 308 306 305
322 324 323 322 322 322 322 321 319 317 313 310 309 309 310 314 314 315 317 317 315 315 315 312 310 312 313 314 313 314 314 315 314 315 313 313 312 311 310 309 307 306 303
322 323 324 323 322 322 321 320 318 314 310 308 309 310 312 312 314 315 316 318 315 314 314 311 309 308 309 312 311 308 308 311 311 313 314 313 313 313 310 308 308 306 303
323 323 323 323 322 322 320 321 317 313 311 307 308 309 311 308 305 308 315 316 316 313 311 309 306 306 307 308 306 308 307 309 310 311 311 312 312 312 310 308 308 305 303
322 322 322 321 321 319 306 308 313 314 309 307 306 307 308 306 304 302 304 304 308 313 311 307 305 306 308 306 306 307 307 305 302 311 309 309 312 310 309 307 306 304 303
321 321 321 321 320 317 302 303 307 310 307 307 307 307 305 305 308 308 303 304 303 302 304 310 309 307 306 307 307 307 308 308 305 307 308 305 308 308 310 308 304 304 303
319 320 320 320 319 312 300 300 302 307 307 307 307 308 308 308 305 308 308 308 308 308 308 310 308 306 305 306 308 308 311 310 308 308 309 302 305 306 311 309 305 303 302
317 318 318 319 318 309 298 297 303 307 306 305 306 307 308 307 295 297 307 306 306 306 300 299 299 297 296 296 300 307 305 304 303 304 308 304 304 305 308 305 306 304 303
315 315 315 318 313 312 296 297 303 306 305 304 306 306 297 302 294 296 308 307 305 305 307 308 308 305 304 303 301 307 306 303 302 301 306 304 303 303 301 307 304 305 305
Wind_Speed
5 5 4 3 3 3 3 3 2 2 3 4 4 6 8 9 8 5 6 11 9 10 12 13 14 15 16 17 16 16 16 18 19 19 20 15 17 19 18 19 19 18 18
5 5 4 3 3 4 5 3 2 2 3 4 6 7 8 8 8 7 6 8 10 11 12 14 14 15 16 17 16 16 19 20 19 19 19 19 19 19 19 19 21 20 19
6 5 4 4 4 4 6 4 4 4 4 4 7 7 7 8 7 7 5 4 6 10 12 13 14 16 17 18 18 19 20 21 20 20 19 20 20 20 20 21 21 23 22
7 5 4 4 5 5 4 4 4 4 4 4 5 5 5 5 6 6 4 3 3 4 8 12 14 16 18 19 19 20 20 19 19 19 18 18 19 21 21 21 20 21 22
7 5 5 5 6 5 4 4 4 3 5 6 6 5 5 4 4 4 5 4 4 4 4 9 11 14 17 18 18 19 20 20 19 18 18 18 20 22 22 22 22 22 23
7 6 5 6 6 5 4 4 4 4 5 7 7 6 4 3 3 4 4 3 4 4 5 7 7 8 13 17 16 20 19 20 21 20 21 22 23 23 24 23 23 24 25
9 7 6 6 6 5 4 6 7 9 7 8 6 5 5 4 4 3 2 2 3 2 5 7 7 7 8 13 14 18 19 20 21 21 21 21 22 23 22 23 23 24 25
10 9 8 7 6 5 7 8 9 7 5 4 3 3 4 3 3 2 1 1 3 2 4 6 9 9 9 8 11 15 19 20 21 22 22 22 22 23 22 23 25 27 28
10 10 10 7 7 5 7 7 8 8 7 4 3 2 3 3 3 4 2 1 2 3 4 5 8 9 9 9 10 13 21 21 21 22 23 23 23 24 25 26 27 29 30
9 9 8 8 6 4 6 7 7 6 6 6 4 1 2 3 4 3 4 4 2 0 3 4 6 8 10 9 11 14 19 18 20 21 22 22 23 24 25 27 28 30 31
8 9 8 8 7 5 6 7 7 5 5 4 3 3 1 1 1 3 2 2 3 2 0 3 6 7 9 10 9 13 17 18 19 20 20 21 23 24 25 27 29 31 32
7 8 8 7 7 7 7 6 6 6 5 5 3 2 2 1 1 0 1 1 4 1 2 3 5 7 8 9 11 18 14 17 18 20 19 20 22 24 26 28 31 31 32
8 9 9 8 7 8 8 8 8 7 6 6 5 5 4 4 2 3 2 1 2 1 1 1 4 7 8 9 11 17 12 14 16 17 20 20 21 23 26 28 31 32 33
10 12 10 9 11 10 9 10 8 7 9 7 8 6 4 3 2 2 2 3 1 1 0 5 4 6 8 8 12 17 11 10 16 16 17 18 20 22 25 29 31 32 33
11 12 12 12 11 11 11 10 8 9 8 8 7 7 4 3 3 2 1 3 3 4 4 4 5 7 8 8 10 13 11 15 12 14 15 16 19 21 24 28 32 32 33
14 13 13 12 12 12 12 10 9 9 8 6 5 6 4 4 3 2 3 3 3 3 3 3 5 7 9 9 11 13 11 11 7 14 16 17 18 19 23 26 31 32 33
14 14 15 14 13 13 11 10 10 10 9 8 6 5 7 5 4 2 3 2 3 4 4 4 4 7 9 10 12 13 11 9 8 16 15 15 17 17 21 25 28 32 33
13 15 15 14 14 14 12 12 11 9 9 8 6 6 7 4 5 3 2 3 4 3 4 6 6 8 8 9 11 13 10 8 8 13 10 13 15 18 20 24 26 30 30
15 16 16 15 15 14 13 11 10 10 8 7 7 7 6 5 4 3 3 2 4 3 3 4 6 6 7 10 12 11 10 11 8 15 10 10 12 13 19 24 29 29 30
17 16 15 14 15 14 13 11 10 9 8 8 8 7 6 5 4 3 3 2 4 3 3 4 6 7 6 7 9 10 11 10 10 12 11 8 10 15 21 24 28 31 30
14 16 15 15 15 13 10 13 11 9 9 9 6 7 7 5 5 4 3 3 3 4 4 5 7 6 7 8 10 9 10 10 9 12 12 9 10 8 10 17 24 30 30
14 15 16 16 15 10 13 12 11 10 9 8 8 6 6 4 6 7 4 6 6 4 5 6 6 6 8 9 9 8 9 10 11 11 12 10 11 8 8 11 23 24 28
15 16 16 15 15 12 14 13 10 10 9 8 7 5 5 4 2 6 7 9 10 8 7 5 5 6 7 9 10 9 10 9 7 10 11 10 12 8 7 10 23 23 24
15 15 16 15 14 11 15 14 12 12 9 9 7 6 5 6 5 4 6 7 8 7 7 5 5 4 5 7 7 7 7 9 5 9 13 10 12 9 7 10 16 21 23
13 14 14 15 15 14 14 15 12 11 10 9 7 5 6 7 4 4 6 7 8 7 8 5 1 5 6 4 8 6 9 9 8 8 13 10 12 11 8 8 10 20 18
13 13 13 14 15 16 13 13 12 9 10 8 7 6 8 7 6 7 6 7 7 6 4 3 4 4 7 5 7 8 7 9 9 7 12 9 12 12 7 10 9 10 11
Wind_Direction
159 171 184 202 198 182 198 175 120 64 44 74 111 121 102 98 101 97 93 85 74 74 58 50 34 18 8 8 3 360 356 354 350 348 348 348 342 347 342 337 334 328 326
165 183 188 208 190 185 174 174 127 114 80 107 109 112 109 108 104 111 102 94 69 70 61 46 29 16 10 7 4 354 359 357 351 351 348 346 348 343 337 335 330 336 329
177 205 200 183 156 153 140 132 128 115 119 114 106 109 118 111 108 105 98 81 109 77 58 40 26 18 12 6 357 352 355 357 358 355 357 351 347 341 339 333 332 328 333
190 208 192 176 159 153 153 147 167 129 129 126 116 118 109 117 107 107 114 89 66 57 79 38 30 19 10 2 355 347 352 354 356 350 350 345 336 330 326 322 320 318 318
200 213 203 170 162 159 164 167 163 147 139 125 123 108 97 105 133 118 124 99 88 64 43 50 23 22 9 360 355 346 344 349 346 344 343 336 330 329 331 330 327 320 318
201 199 185 161 163 166 167 153 145 125 134 135 121 98 91 102 129 126 125 98 94 85 54 27 2 8 1 355 356 351 340 350 343 345 347 340 338 336 335 339 341 336 329
183 182 176 162 165 179 158 146 136 135 126 130 122 113 86 93 115 128 137 81 86 86 42 20 13 356 348 353 359 354 346 348 344 347 346 345 336 338 341 342 341 332 327
179 177 173 168 170 161 157 168 154 149 126 167 163 153 170 163 142 169 131 81 61 33 43 34 11 357 349 351 355 353 346 340 339 342 344 344 338 338 339 340 336 334 330
179 176 165 161 162 190 179 174 164 173 158 163 166 308 178 240 186 184 168 93 90 41 39 36 11 5 2 345 345 349 347 343 342 342 340 341 340 340 339 337 336 336 330
169 158 156 147 159 175 170 167 175 174 183 172 156 84 352 333 256 212 200 166 196 353 44 33 8 4 6 352 352 350 349 342 344 344 343 342 342 342 340 342 338 333 332
159 152 151 143 141 163 160 171 168 172 175 176 196 158 149 162 260 288 303 175 204 208 37 7 349 1 12 356 353 353 345 347 349 348 345 346 344 344 344 342 337 337 334
153 148 147 140 142 127 157 153 134 131 115 116 141 152 202 243 143 53 283 287 305 192 293 331 355 8 6 358 355 343 349 348 351 351 350 351 348 347 347 345 343 341 335
166 158 148 144 135 132 144 136 120 118 117 117 117 107 96 80 83 69 302 40 308 74 273 244 4 5 4 0 2 349 348 339 343 348 353 354 353 352 351 349 346 344 338
162 149 144 145 133 139 130 118 113 114 114 110 106 89 94 93 78 63 312 335 323 75 46 350 19 359 10 360 356 338 349 349 344 346 349 351 351 354 354 352 352 348 344
143 145 148 142 143 136 126 122 123 125 123 118 109 109 113 100 83 79 38 26 350 0 43 55 353 10 5 347 351 339 344 348 347 348 350 349 349 352 351 352 355 351 347
144 144 147 143 137 130 128 131 131 124 124 119 116 120 114 85 82 59 58 64 36 10 356 15 4 350 351 341 350 343 341 314 28 356 354 353 349 353 353 355 358 355 351
144 149 143 144 141 135 134 134 134 133 126 118 108 103 85 73 71 82 74 65 65 12 4 36 352 359 345 346 339 343 346 347 357 19 351 350 349 354 359 359 2 359 356
148 153 141 143 148 136 142 143 140 136 131 120 101 87 76 85 86 66 53 46 63 67 357 4 359 356 345 338 343 339 347 356 348 13 354 357 359 4 2 1 7 2 360
148 156 142 154 147 144 144 145 137 135 121 104 92 81 76 91 82 62 39 50 80 62 44 355 352 6 340 359 343 354 353 359 5 6 4 10 3 11 16 4 8 7 4
160 142 152 157 146 143 140 142 138 128 121 96 85 88 90 78 85 59 57 76 67 55 54 10 7 1 355 357 352 350 0 1 7 1 353 13 355 30 25 10 10 12 6
153 147 150 153 144 140 144 146 143 143 120 102 93 94 83 64 63 35 346 42 46 41 30 18 14 356 6 356 359 349 1 354 17 14 355 16 10 28 22 14 13 13 12
150 151 156 153 141 144 130 129 151 136 116 117 109 103 100 119 99 73 64 54 34 35 35 12 24 2 2 355 356 347 1 359 7 22 350 19 9 35 20 25 10 7 14
151 156 156 150 140 137 133 130 139 120 123 119 112 114 106 86 98 104 104 111 81 59 30 2 17 8 349 349 332 346 1 356 11 18 0 6 9 25 46 32 13 7 9
157 160 151 142 138 139 132 128 124 121 118 111 108 96 92 88 56 90 98 86 74 61 39 55 36 18 6 342 332 328 336 331 43 36 8 4 6 7 31 35 18 4 10
154 156 146 141 147 144 135 138 132 129 125 120 107 97 97 87 45 14 90 91 80 64 92 79 301 274 272 302 330 9 12 360 16 35 27 354 7 4 44 36 11 12 9
152 142 139 154 149 145 152 142 142 135 137 127 119 110 47 70 64 25 69 72 76 49 52 77 45 12 27 48 37 33 1 2 12 30 32 345 9 5 9 30 26 10 8